KUIPER-00189

Last updated on Sun Apr 12 2026 00:02:10 GMT+0000 (Coordinated Universal Time)

1 68574U 26072B 26101.50002315 .00054444 00000+0 14066-2 0 9992 2 68574 51.8761 139.3634 0001409 66.8975 223.7484 15.38589407 1612
UTC large
Height (km)
Speed (km/s)
/
Latitude / Longitude
Inclination (degrees)
Orbital Period (minutes)
Azimuth
Elevation
Range (km)
Doppler Factor

Next 0 passes for location: London (51.5072 / 0.1276)

Sorry there are no passes over London.
KUIPER-00189